Location: Arboyeti
(42.1122°N, 44.6017°E)
Time: 20:13:03
(UTC+00:00)

BREEZE-M R/B - Pass Details

Date: 19 April 2021
Orbit: 311 x 4504 km, 49.7° (Epoch: 17 May)

Event Time Altitude Azimuth Distance (km) Brightness Sun altitude
Exits shadow 23:16:47 33° 325° (NW) 1,163 4.5 -27.9°
Maximum altitude 23:18:01 39° 0° (N) 1,162 4.7 -27.8°
Drops below altitude 10° 23:25:17 10° 68° (ENE) 3,526 7.7 -26.9°
Sets 23:29:58 0° 75° (ENE) 5,260 8.6 -26.4°
